Location: ??????
(41.3794°N, 22.5014°E)
Time: 22:25:37
(UTC+00:00)

Cosmos 489 Rocket - Pass Details

Date: 30 November 2020
Orbit: 952 x 984 km, 74.0° (Epoch: 18 January)

Event Time Altitude Azimuth Distance (km) Brightness Sun altitude
Rises 16:10:18 0° 193° (SSW) 3,610 7.9 -12.7°
Reaches altitude 10° 16:12:48 10° 192° (SSW) 2,669 7.2 -13.1°
Maximum altitude 16:18:58 78° 107° (ESE) 977 4.4 -14.2°
Drops below altitude 10° 16:25:11 10° 22° (NNE) 2,698 6.5 -15.3°
Enters shadow 16:26:27 - 22° (NNE) 3,169 6.8 -15.6°
